Regional Weather Roundup
Issued by NWS

Home | Current Version | Previous Version | Text Only | Print | Product List | Glossary On
Versions: 1 2 3 4 5 6 7 8 9 10 11 12 13 14 15 16 17 18 19 20 21 22 23 24 25 26 27 28 29 30 31 32 33 34 35 36 37 38 39 40 41 42 43 44 45 46 47 48 49 50
000
ASUS43 KMKX 021121
RWRWI

WISCONSIN REGIONAL WEATHER ROUNDUP
NATIONAL WEATHER SERVICE MILWAUKEE/SULLIVAN WI
600 AM CDT THU JUL 02 2015

NOTE: "FAIR" INDICATES FEW OR NO CLOUDS BELOW 12,000 FEET WITH NO
SIGNIFICANT WEATHER AND/OR OBSTRUCTIONS TO VISIBILITY.

WIZ001-002-006>008-014>016-023>028-021200-
NORTHWEST WISCONSIN

CITY           SKY/WX    TMP DP  RH WIND       PRES   REMARKS
SUPERIOR ARPT  MOCLDY    51  51  99 CALM      30.03R
ASHLAND        PTCLDY    47  46  97 SW3       30.04R
HAYWARD        CLEAR     51  49  92 CALM      30.06R
SIREN          NOT AVBL
CUMBERLAND     NOT AVBL
RICE LAKE      CLEAR     50  49  96 CALM      30.07R FOG
CHETEK         NOT AVBL
LADYSMITH      NOT AVBL
EAU CLAIRE     CLEAR     49  49 100 CALM      30.05R
MENOMONIE      NOT AVBL
NEW RICHMOND   NOT AVBL
OSCEOLA        NOT AVBL
$$

WIZ003>005-009-010-017-018-021200-
NORTH CENTRAL WISCONSIN

CITY           SKY/WX    TMP DP  RH WIND       PRES   REMARKS
MANITOWISH WTR NOT AVBL
ARBOR VITAE    CLEAR     46  44  92 CALM      30.07R
WOODRUFF       CLEAR     46  44  92 CALM      30.07R
RHINELANDER    CLEAR     44  42  93 CALM      30.08R
EAGLE RIVER    NOT AVBL
LAND O LAKES   MOCLDY    40  40 100 CALM      30.08R
PHILLIPS       NOT AVBL
TOMAHAWK       CLEAR     41  40  96 CALM      30.07
MEDFORD        NOT AVBL
MERRILL        NOT AVBL
$$

WIZ029-030-035-036-043>047-021200-
CENTRAL WISCONSIN

CITY           SKY/WX    TMP DP  RH WIND       PRES   REMARKS
WAUSAU         CLEAR     49  47  93 E6        30.05S
MOSINEE        CLEAR     48  48 100 E3        30.07
MARSHFIELD     PTCLDY    53  50  89 SE5       30.06R FOG
STEVENS POINT  NOT AVBL
WAUPACA        NOT AVBL
WAUTOMA        CLEAR     48  48 100 CALM      30.06S
WISC RAPIDS    CLEAR     51  48  89 CALM      30.07S FOG
CAMP DOUGLAS   CLEAR     46  46 100 SW1       30.06R FOG
$$

WIZ011>013-019>022-031-037>040-048>050-021200-
NORTHEAST WISCONSIN

CITY           SKY/WX    TMP DP  RH WIND       PRES   REMARKS
ANTIGO         CLEAR     44  44  99 CALM      30.08S
SHAWANO        NOT AVBL
OCONTO         NOT AVBL
STURGEON BAY   CLEAR     46  43  87 CALM      30.09R
GREEN BAY      CLEAR     48  46  93 CALM      30.07R
MANITOWOC      CLEAR     47  46  97 MISG      30.06R
APPLETON       CLEAR     50  45  81 N6        30.07
CLINTONVILLE   NOT AVBL
OSHKOSH        CLEAR     49  45  86 CALM      30.05R
$$

WIZ032>034-041-042-053>061-021200-
SOUTHWEST WISCONSIN

CITY           SKY/WX    TMP DP  RH WIND       PRES   REMARKS
LA CROSSE      MOCLDY    52  51  97 SE5       30.05R
SPARTA         NOT AVBL
VIROQUA        NOT AVBL
BOSCOBEL       FOG       51  50  96 E5        30.04S VSB<1/4
PRAIRIE DU CHI NOT AVBL
PLATTEVILLE    NOT AVBL
$$

WIZ056-057-062-063-064-067-068-021200-
SOUTH CENTRAL WISCONSIN

CITY           SKY/WX    TMP DP  RH WIND       PRES   REMARKS
REEDSBURG      NOT AVBL
BARABOO/DELLS  CLEAR     47  46  95 CALM      30.04  FOG
LONE ROCK      FOG       50  49  96 CALM      30.03F VSB<1/4
MINERAL POINT  NOT AVBL
MADISON        CLEAR     48  46  93 N3        30.03S FOG
MIDDLETON      NOT AVBL
WATERTOWN      NOT AVBL
MONROE         NOT AVBL
JANESVILLE     CLEAR     52  48  87 CALM      30.01R
$$

WIZ051-052-058>065-066-070>072-021200-
SOUTHEAST WISCONSIN

CITY           SKY/WX    TMP DP  RH WIND       PRES   REMARKS
MILWAUKEE      PTCLDY    53  48  83 NE9       30.02F
WAUKESHA       CLEAR     46  45  93 CALM      30.03
MILWAUKEE/TIMM NOT AVBL
RACINE         CLEAR     53  49  86 N9        30.02F
BURLINGTON     NOT AVBL
KENOSHA        CLEAR     51  48  89 N7        30.00F
FOND DU LAC    CLEAR     48  46  93 CALM      30.05R
SHEBOYGAN      CLEAR     48  44  86 N6        30.05S
WEST BEND      NOT AVBL
JUNEAU         NOT AVBL
$$

LSZ147-162-021200-
LAKE SUPERIOR

STATION/POSITION TIME  TEMP    WIND        PRES    WAVE
                       AIR SEA DIR/SP/G            HT/PER
                 (UTC) (F)     (DEG/KT/KT) (MB)    (FT/S)
W MID LAKE BUOY  1050   47 38  190/  6/  6 1016.8R   0
DEVILS ISLAND    1100   58     220/  6/  6 1016.7R
SAXON HARBOR     1040   52     200/  4/  6 1016.6R
$$

LMZ867-665-643>646-021200-
LAKE MICHIGAN

STATION/POSITION TIME  TEMP    WIND        PRES    WAVE
                       AIR SEA DIR/SP/G            HT/PER
                 (UTC) (F)     (DEG/KT/KT) (MB)    (FT/S)
CHAMBERS ISLAND  1000   48      CALM  /  2 1017.9R
S GREEN BAY BUOY 0900   59 68  100/  6/ 10 1018.5R
N MID LAKE BUOY  1050   50 41   CALM  /  2 1017.7F   0
NORTHPORT PIER   1000   50        CALM     1017.6R
SISTER BAY       0914   53     120/  5/  6   N/A
ALGOMA LAKESHORE 1010          320/  4/  6   N/A
KEWAUNEE LAKESHO 1000   46     310/  2/  5 1016.8R
SHEBOYGAN LAKESH 1100   56      20/ 11/ 11 1017.8R
PORT WASHINGTON  1040   52     360/  5/  9 1017.6R
ATWATER BUOY     1100   55      20/ 14/ 17 1017.6F
MILWAUKEE LAKESH 1100   55      20/ 13/ 15   N/A
KENOSHA   LAKESH 1100   56      30/ 15/ 18 1015.6F
$$

TC  - TEMPERATURE IN CELSIUS
VSB - VISIBILITY IN STATUTE MILES
WCI - WIND CHILL INDEX
HX  - HEAT INDEX



USA.gov is the U.S. government's official web portal to all federal, state and local government web resources and services.